Temperature
24 24 23 23 23 22 22 22 22 21 21 21 21 21 20 20 20 20 20 19 19 19 19 19 19 19 19 18 18 18 18 18 18 18 18 18 18 18 18 18 18 18 17
24 24 23 23 23 23 22 22 22 22 21 21 21 21 20 20 20 20 20 19 19 19 19 19 19 19 18 18 18 18 18 18 18 18 18 18 18 18 18 18 18 17 17
24 24 23 23 23 23 22 22 22 22 21 21 21 20 20 20 20 19 19 19 19 19 19 19 19 18 18 18 18 18 18 18 18 18 18 17 17 17 17 17 17 17 17
24 24 23 23 23 23 23 22 22 22 21 21 21 20 20 20 20 20 19 19 19 19 19 19 19 18 18 18 18 18 18 18 18 18 17 17 17 17 17 17 17 17 17
24 24 23 23 23 23 22 22 22 22 21 21 20 20 20 20 20 19 19 19 19 19 19 18 19 18 18 18 18 18 18 18 18 18 17 17 17 17 17 17 17 17 17
24 24 24 23 23 22 22 22 22 22 21 21 20 20 20 20 20 19 19 19 19 19 19 18 18 18 18 18 18 18 18 18 17 17 17 17 17 17 17 17 17 17 16
24 24 23 23 23 22 22 22 22 22 21 21 20 20 20 20 20 20 19 19 19 19 19 18 18 18 18 18 18 18 18 17 17 17 17 17 17 17 17 16 16 16 16
24 24 23 23 23 22 22 22 22 22 21 21 21 20 20 20 20 20 20 19 19 19 18 18 18 18 18 18 18 17 17 17 17 17 17 17 17 16 16 16 16 16 16
24 24 24 23 23 23 22 22 22 22 21 21 21 20 20 20 20 19 19 19 19 19 18 18 18 18 18 17 17 17 17 17 17 17 16 16 16 16 16 16 16 16 15
23 24 23 23 23 23 22 22 22 22 21 21 21 20 20 20 19 19 19 19 18 18 18 18 18 18 17 17 17 17 17 17 16 16 16 16 16 16 16 16 16 16 16
23 23 23 23 23 22 22 22 22 21 21 21 20 20 20 20 19 19 19 19 18 18 18 18 17 17 17 17 17 16 16 16 16 16 16 16 16 16 16 16 16 15 15
23 23 23 22 22 22 22 22 21 21 21 21 20 20 20 19 19 19 19 18 18 18 18 17 17 17 17 17 16 16 16 16 16 16 16 15 15 15 15 15 15 15 15
22 22 22 22 22 22 22 21 21 21 21 20 20 20 19 19 19 19 18 18 18 18 17 17 17 17 16 16 16 16 16 16 15 15 15 15 15 15 15 15 15 15 15
22 22 22 22 22 22 21 21 21 21 20 20 20 19 19 19 19 19 18 18 18 17 17 17 16 16 16 16 16 16 16 15 15 15 15 15 15 15 15 15 15 14 14
22 22 22 22 22 21 21 21 21 20 20 20 20 19 19 19 19 18 18 18 17 17 17 17 16 16 16 16 16 15 15 15 15 15 15 15 15 14 14 14 14 14 14
21 21 21 21 21 21 21 20 20 20 20 20 19 19 19 18 18 18 18 17 17 17 17 16 16 16 16 15 15 15 15 15 15 15 15 14 14 14 14 14 14 14 14
21 21 21 21 21 20 20 20 20 20 20 19 19 19 18 18 18 18 17 17 17 17 16 16 16 15 15 15 15 15 15 15 15 15 14 14 14 14 14 14 14 13 13
21 21 20 20 20 20 20 20 20 19 19 19 19 18 18 18 17 17 17 17 16 16 16 16 16 15 15 15 15 15 15 15 14 14 14 14 14 14 14 14 13 13 13
21 20 20 20 20 20 19 19 19 19 19 18 18 18 18 17 17 17 17 16 16 16 16 15 15 15 15 15 15 14 14 14 14 14 14 14 14 13 13 13 13 13 13
20 20 20 19 19 19 19 19 19 18 18 18 18 18 17 17 17 16 16 16 16 16 15 15 15 15 15 15 14 14 14 14 14 14 13 13 13 13 13 13 13 13 13
19 19 19 19 19 19 18 18 18 18 18 18 17 17 17 16 16 16 16 15 15 15 15 15 15 15 14 14 14 14 14 14 14 13 13 13 13 13 13 13 13 12 12
18 18 18 18 18 18 18 18 18 18 18 17 17 17 16 16 16 15 15 15 15 15 15 14 14 14 14 14 14 14 14 14 13 13 13 13 13 13 13 12 12 12 12
18 18 18 18 17 17 17 17 17 17 17 16 16 16 16 16 15 15 15 15 15 14 14 14 14 14 14 14 14 14 14 13 13 13 13 13 12 12 12 12 12 12 12
17 17 17 17 16 16 16 17 17 16 16 16 16 15 15 15 15 15 14 14 14 14 14 14 14 14 14 14 14 13 13 13 13 13 12 12 12 12 12 12 12 12 11
16 16 16 16 16 16 16 16 16 16 16 15 15 15 14 14 14 14 14 14 14 14 14 14 14 13 13 13 13 13 13 13 13 13 12 12 12 12 12 12 12 11 11
16 16 16 15 15 15 15 15 15 15 15 15 14 14 14 14 14 14 14 14 13 13 13 13 13 13 13 13 13 13 13 13 12 12 12 12 12 12 11 11 11 11 11
Wind_Speed
11 11 12 12 11 9 9 8 7 6 6 4 3 3 2 2 1 2 2 3 3 4 4 2 2 2 2 2 2 2 2 1 1 2 2 2 1 2 3 3 4 4 6
9 10 11 11 11 11 10 9 8 7 6 5 4 3 3 2 2 2 2 3 3 3 4 3 2 2 2 2 1 2 2 0 1 2 1 2 3 2 1 1 3 4 3
12 12 12 11 11 10 11 10 9 8 7 6 4 3 3 2 2 1 1 1 3 3 3 3 3 2 2 2 1 1 2 1 0 1 3 2 2 2 2 1 1 2 2
11 11 12 11 11 11 10 9 9 8 7 7 6 6 5 3 3 3 2 1 2 3 4 4 3 2 2 1 1 1 1 2 1 1 0 2 3 2 1 2 1 1 2
13 12 13 13 11 9 9 9 8 8 7 7 8 7 5 4 3 3 3 2 1 2 3 3 3 3 2 2 1 1 1 2 2 1 0 0 1 1 2 1 2 1 1
11 10 10 10 8 7 7 8 8 7 7 7 7 7 7 6 5 4 4 2 1 1 2 2 2 2 2 2 1 1 1 1 1 1 1 2 1 1 2 2 1 1 1
10 10 10 10 9 9 9 8 9 7 7 7 7 7 7 7 7 6 5 4 2 2 2 2 2 2 2 2 2 2 1 1 1 1 1 1 1 2 2 3 2 0 1
11 12 13 12 12 11 10 9 9 9 8 9 8 7 7 5 5 5 5 5 4 4 3 3 2 2 2 2 2 2 1 1 1 1 0 1 0 1 2 3 3 1 1
9 11 11 11 10 10 10 9 9 8 8 8 7 6 6 5 5 5 5 4 4 4 4 4 3 2 2 3 2 1 1 1 1 1 1 1 0 0 1 2 3 4 2
7 8 9 10 10 10 9 9 8 8 7 7 7 6 6 6 6 5 6 5 5 4 5 4 4 3 2 2 2 1 1 1 0 1 1 1 0 1 0 1 1 2 3
6 6 6 7 7 6 7 7 7 7 6 7 6 6 6 6 5 5 6 5 4 5 4 4 3 3 3 3 3 2 1 1 0 0 1 0 0 0 1 1 1 1 2
7 6 6 6 6 6 5 6 6 6 6 6 6 6 5 5 5 4 4 5 5 5 4 4 4 3 3 3 3 3 1 1 1 1 0 0 0 1 1 0 0 1 1
7 6 6 6 6 6 6 5 6 6 5 5 5 5 4 4 4 5 4 4 4 4 4 3 3 3 3 3 3 2 2 2 2 1 1 1 1 0 1 0 0 0 0
8 7 6 5 5 5 5 5 6 5 5 5 5 5 5 5 4 4 4 5 5 5 4 3 3 3 3 3 3 3 2 1 1 1 1 1 2 2 2 1 1 1 1
7 7 6 5 4 4 4 6 6 5 5 5 5 5 5 4 4 4 4 4 5 5 4 3 3 3 3 3 4 3 3 2 1 1 1 2 2 3 2 2 2 1 1
6 6 6 5 5 4 5 5 6 6 6 6 5 4 4 4 4 4 4 4 4 4 4 4 4 3 3 4 5 4 3 3 2 2 2 2 2 1 2 2 3 3 3
6 5 5 5 5 5 5 6 6 6 6 6 5 4 4 4 4 4 4 4 4 4 4 4 4 4 4 5 5 6 4 4 4 4 3 3 2 2 2 2 2 2 4
6 5 4 4 3 3 4 5 5 5 5 5 5 4 4 4 4 4 4 4 4 4 4 4 4 4 4 5 4 5 3 3 4 4 4 3 3 2 2 2 2 2 3
5 4 4 3 3 3 4 5 5 4 5 5 5 5 5 5 4 4 4 4 4 4 4 3 4 4 5 6 6 4 2 2 3 3 3 3 3 3 3 2 2 3 4
4 4 3 3 3 3 4 5 4 4 5 5 5 4 4 5 5 5 4 3 4 4 3 3 4 5 5 6 6 5 3 2 2 2 2 4 4 4 3 3 3 3 4
4 4 4 4 2 2 4 4 4 4 5 4 4 4 4 4 4 4 3 3 3 3 3 3 3 4 5 6 7 6 4 4 3 3 3 3 5 5 4 4 4 6 4
4 4 4 3 2 2 4 3 2 3 3 3 3 3 3 3 3 3 2 2 3 3 3 2 3 3 4 5 7 8 7 6 4 4 4 5 6 6 5 4 5 5 3
3 3 4 4 3 2 3 2 1 1 3 3 3 3 3 2 2 3 3 2 2 3 3 3 3 3 2 3 6 7 7 7 5 5 6 6 7 5 4 6 6 3 2
4 4 5 5 3 3 3 2 1 1 3 3 2 2 2 1 1 1 2 2 3 3 3 3 4 3 2 3 3 3 3 4 4 4 4 5 5 4 4 4 3 3 4
3 4 4 3 2 2 2 2 2 2 3 2 1 1 1 2 1 1 1 2 3 4 5 4 4 4 4 6 7 5 4 4 5 3 1 1 1 2 3 3 3 3 3
3 3 2 2 1 1 2 2 2 2 2 2 1 1 1 1 1 1 1 2 2 3 4 5 5 4 6 7 7 7 7 7 5 3 2 4 4 5 5 5 4 3 4
Wind_Direction
180 167 165 164 161 158 158 162 160 165 158 153 152 144 156 161 146 137 138 140 141 141 128 125 116 107 106 118 118 116 97 59 72 67 20 353 313 198 197 194 188 196 196
171 169 167 168 168 169 168 166 166 166 167 172 169 157 153 163 165 147 125 145 135 138 140 124 129 117 111 88 82 105 98 40 98 124 90 6 352 344 244 187 188 202 194
176 174 172 173 169 174 176 174 173 169 169 162 145 127 102 88 101 125 170 163 147 139 128 124 120 109 121 131 127 134 135 164 311 136 140 148 229 299 332 312 183 184 188
178 171 170 172 176 182 176 171 172 170 169 158 152 150 153 159 179 174 165 142 138 140 140 136 127 124 119 110 117 122 136 139 183 315 101 161 170 168 307 341 344 206 190
181 179 176 177 178 176 172 172 169 171 168 163 163 160 165 174 163 146 139 150 149 154 152 148 151 140 132 138 128 94 114 142 157 165 179 66 68 116 147 265 317 338 294
173 170 168 162 165 166 168 168 164 172 172 167 167 169 172 171 158 157 160 170 171 177 159 150 159 149 141 162 160 150 116 124 126 132 133 147 154 185 153 185 232 265 288
162 159 160 164 167 171 175 173 168 173 175 172 176 180 179 178 178 178 175 171 171 180 190 163 154 155 162 158 138 126 112 117 118 143 169 162 182 177 160 155 182 228 312
160 165 170 173 173 177 177 175 176 179 180 181 186 185 183 182 184 183 178 179 183 188 181 168 160 162 166 155 135 145 157 130 136 134 134 118 245 175 160 164 154 133 341
160 164 172 172 173 175 178 178 179 182 183 185 184 182 183 179 179 176 175 177 182 178 165 166 169 174 171 168 155 154 183 150 148 154 126 110 304 32 179 155 153 158 180
146 157 169 170 171 172 174 174 174 176 178 179 181 183 185 187 180 172 177 180 181 171 166 169 178 178 171 161 158 162 179 131 170 162 112 70 341 350 4 136 148 156 164
149 148 149 153 157 158 164 169 174 172 172 174 177 179 187 188 181 181 185 180 173 164 169 175 178 181 172 157 145 158 150 140 299 293 147 195 320 356 343 18 102 125 142
157 144 144 139 139 149 162 167 172 177 184 181 176 180 180 174 173 180 182 173 169 165 165 166 165 171 170 167 164 171 160 172 216 240 147 254 32 38 357 31 59 135 157
145 133 132 141 151 159 170 175 175 176 179 170 166 167 173 173 179 181 176 171 166 160 155 158 163 172 176 175 172 172 185 196 210 207 196 226 136 316 305 353 26 240 101
141 140 142 147 156 164 172 173 180 176 170 164 164 167 178 181 182 177 175 173 166 161 164 163 169 175 175 169 166 163 182 199 214 215 215 221 187 206 216 218 222 186 94
145 152 156 154 151 160 174 178 178 174 165 156 159 174 179 175 171 173 179 174 169 170 166 157 172 184 178 177 168 174 182 188 207 257 245 238 211 198 210 212 197 163 154
162 161 158 154 159 170 173 171 171 171 156 156 168 173 169 172 181 187 180 172 169 167 163 170 182 187 198 185 178 179 192 200 210 234 253 263 254 248 243 223 200 185 188
159 160 161 166 174 180 173 170 174 161 154 160 167 171 172 177 189 183 166 175 181 176 182 185 185 196 207 199 193 190 193 212 222 225 236 254 257 246 236 255 262 249 237
154 163 166 170 169 164 157 152 151 152 158 165 171 171 169 175 177 168 175 190 181 181 192 196 195 197 210 203 203 204 202 219 230 227 220 224 243 245 220 216 247 267 267
150 153 157 160 149 140 145 139 140 151 160 173 182 180 175 176 180 189 198 194 183 191 200 201 197 201 217 210 211 199 195 227 250 244 221 210 218 245 216 192 232 280 293
117 124 118 110 119 134 131 135 147 155 179 187 184 179 174 179 191 197 200 195 188 195 193 207 212 206 212 213 208 193 189 217 244 257 239 225 224 232 205 194 208 243 270
106 113 121 124 138 133 125 142 157 186 199 185 170 167 174 191 196 191 193 190 186 186 195 212 222 214 216 215 209 195 190 204 216 229 239 244 234 230 224 213 215 234 244
86 100 109 106 103 116 126 139 191 213 178 156 163 177 191 200 188 180 193 183 176 186 207 219 245 246 235 222 216 208 208 204 202 223 230 237 237 236 239 242 243 247 248
88 86 93 77 50 62 107 122 248 178 140 147 171 188 193 198 177 172 183 182 181 189 210 216 236 255 255 236 225 219 218 212 211 227 234 246 245 243 248 251 248 233 222
82 76 79 76 57 39 47 54 40 100 120 141 174 179 173 174 155 169 175 181 196 202 214 219 229 241 240 237 229 226 226 223 230 239 249 262 255 248 254 261 248 227 225
83 94 105 105 90 57 39 25 36 75 102 109 111 123 148 150 144 158 194 187 218 217 209 216 212 211 231 235 219 212 219 220 226 211 210 238 252 251 260 269 263 250 246
102 98 100 100 77 49 39 15 12 70 99 97 91 121 130 167 152 143 344 332 284 266 240 227 216 229 234 230 223 224 228 230 218 182 212 228 232 235 240 245 253 247 243
Height
1515 1518 1520 1522 1524 1525 1526 1528 1529 1531 1531 1532 1532 1533 1533 1534 1535 1535 1535 1535 1535 1535 1535 1535 1535 1535 1535 1535 1535 1535 1535 1535 1535 1535 1535 1535 1535 1535 1536 1536 1536 1537 1537
1514 1516 1518 1520 1522 1523 1525 1526 1528 1529 1529 1530 1531 1532 1533 1534 1534 1535 1535 1535 1535 1535 1535 1535 1535 1535 1534 1534 1534 1534 1534 1534 1534 1534 1534 1534 1535 1534 1535 1535 1535 1535 1536
1511 1514 1516 1518 1520 1522 1523 1524 1526 1527 1528 1529 1530 1531 1532 1533 1533 1533 1534 1534 1534 1534 1534 1534 1534 1534 1534 1534 1534 1534 1533 1533 1533 1534 1534 1533 1533 1533 1534 1533 1534 1534 1534
1509 1511 1513 1516 1518 1519 1521 1523 1524 1525 1527 1528 1529 1530 1530 1530 1531 1532 1533 1533 1533 1533 1533 1533 1533 1533 1533 1533 1533 1533 1532 1532 1532 1533 1532 1533 1532 1532 1532 1533 1532 1532 1533
1506 1508 1510 1513 1515 1518 1520 1521 1523 1524 1525 1526 1527 1528 1529 1530 1530 1531 1531 1532 1532 1532 1532 1532 1531 1531 1532 1532 1532 1532 1532 1531 1531 1531 1531 1531 1531 1531 1531 1531 1531 1531 1531
1503 1506 1509 1511 1514 1517 1518 1520 1521 1522 1523 1524 1525 1526 1527 1528 1529 1529 1529 1530 1530 1531 1531 1531 1531 1530 1530 1531 1531 1531 1530 1530 1530 1530 1530 1530 1530 1529 1529 1529 1529 1529 1530
1501 1504 1507 1509 1512 1514 1516 1518 1519 1520 1521 1522 1523 1524 1525 1526 1527 1527 1528 1528 1528 1529 1529 1529 1530 1529 1529 1529 1530 1529 1529 1529 1529 1529 1529 1529 1529 1529 1528 1528 1528 1528 1528
1499 1502 1504 1507 1509 1511 1513 1515 1516 1517 1518 1520 1521 1522 1524 1524 1525 1526 1526 1526 1527 1527 1528 1528 1528 1528 1528 1529 1529 1528 1528 1528 1527 1527 1527 1527 1527 1527 1527 1527 1527 1527 1527
1497 1500 1503 1505 1507 1509 1511 1512 1513 1515 1516 1518 1519 1520 1521 1522 1523 1523 1524 1525 1525 1525 1526 1527 1527 1527 1527 1527 1527 1527 1526 1526 1526 1526 1526 1526 1526 1526 1526 1526 1526 1526 1525
1497 1499 1501 1503 1505 1507 1509 1510 1511 1512 1514 1515 1516 1517 1519 1520 1521 1522 1522 1523 1523 1524 1524 1524 1525 1525 1525 1525 1525 1525 1525 1525 1524 1524 1524 1524 1524 1524 1524 1524 1524 1524 1524
1496 1498 1500 1502 1504 1506 1507 1508 1509 1510 1511 1512 1514 1515 1516 1517 1519 1519 1520 1521 1521 1522 1522 1522 1522 1523 1523 1523 1523 1523 1523 1523 1523 1523 1522 1522 1522 1522 1522 1522 1522 1522 1522
1495 1496 1498 1500 1503 1504 1506 1507 1507 1508 1509 1510 1512 1513 1514 1515 1516 1517 1518 1519 1519 1519 1519 1520 1520 1520 1521 1521 1521 1521 1521 1521 1521 1521 1521 1520 1521 1520 1520 1520 1520 1520 1520
1493 1495 1497 1499 1500 1501 1503 1505 1506 1506 1508 1509 1510 1511 1512 1513 1514 1515 1516 1516 1517 1517 1517 1518 1518 1519 1519 1519 1519 1519 1519 1519 1519 1519 1519 1519 1519 1519 1519 1518 1518 1518 1518
1492 1493 1495 1496 1498 1499 1501 1502 1504 1505 1506 1507 1508 1509 1510 1511 1512 1513 1513 1514 1514 1514 1515 1516 1516 1517 1517 1517 1517 1517 1517 1517 1517 1518 1518 1517 1517 1517 1517 1517 1516 1516 1516
1491 1492 1493 1495 1496 1498 1499 1501 1502 1503 1504 1505 1505 1506 1507 1508 1509 1510 1511 1511 1511 1512 1513 1513 1514 1514 1514 1515 1515 1515 1515 1515 1515 1515 1515 1515 1515 1515 1515 1515 1515 1514 1514
1490 1491 1492 1493 1495 1496 1497 1498 1500 1501 1502 1503 1503 1504 1505 1506 1506 1507 1507 1508 1509 1509 1510 1511 1511 1512 1512 1513 1513 1513 1513 1512 1512 1512 1513 1513 1513 1513 1513 1512 1512 1512 1512
1489 1490 1491 1492 1493 1494 1495 1496 1497 1498 1499 1500 1501 1502 1503 1503 1503 1504 1504 1505 1506 1506 1507 1508 1509 1509 1510 1510 1510 1510 1510 1510 1509 1510 1510 1510 1510 1510 1510 1510 1510 1509 1509
1488 1489 1491 1491 1492 1493 1493 1494 1495 1496 1497 1497 1499 1500 1500 1501 1501 1501 1502 1502 1503 1503 1504 1505 1505 1506 1507 1507 1507 1507 1507 1507 1507 1507 1507 1508 1508 1508 1507 1507 1507 1506 1506
1486 1488 1489 1490 1490 1491 1491 1492 1493 1494 1494 1495 1496 1497 1497 1498 1498 1499 1499 1500 1500 1501 1501 1502 1502 1503 1504 1504 1505 1505 1504 1504 1505 1505 1505 1505 1505 1505 1505 1504 1504 1503 1503
1485 1486 1487 1488 1488 1489 1490 1490 1490 1491 1492 1492 1493 1494 1495 1496 1496 1496 1497 1497 1498 1498 1499 1499 1500 1500 1501 1502 1502 1502 1502 1501 1501 1502 1502 1502 1502 1502 1502 1501 1500 1500 1499
1484 1485 1486 1487 1487 1488 1488 1488 1488 1488 1489 1490 1491 1491 1492 1493 1493 1494 1494 1494 1495 1495 1496 1496 1497 1498 1498 1499 1499 1499 1499 1499 1499 1498 1498 1499 1499 1499 1499 1498 1497 1497 1496
1483 1484 1484 1485 1485 1486 1486 1486 1486 1486 1486 1487 1488 1489 1489 1490 1491 1491 1491 1492 1493 1493 1493 1493 1493 1494 1495 1495 1496 1496 1496 1496 1496 1495 1495 1495 1496 1495 1495 1494 1494 1494 1493
1483 1484 1484 1483 1484 1484 1484 1484 1484 1484 1484 1485 1485 1486 1486 1487 1488 1488 1488 1489 1490 1490 1490 1490 1490 1491 1491 1492 1492 1492 1492 1492 1492 1492 1492 1492 1492 1492 1491 1491 1490 1490 1489
1483 1483 1483 1483 1483 1483 1482 1482 1482 1482 1482 1482 1482 1483 1483 1484 1484 1485 1485 1485 1486 1487 1487 1487 1487 1487 1487 1488 1488 1488 1488 1488 1488 1488 1488 1488 1488 1488 1488 1487 1487 1486 1486
1483 1483 1483 1483 1482 1482 1481 1481 1480 1480 1479 1479 1480 1480 1481 1480 1481 1481 1481 1481 1482 1483 1484 1484 1484 1484 1484 1484 1484 1483 1484 1484 1484 1484 1484 1484 1483 1483 1483 1483 1482 1482 1482
1483 1483 1482 1482 1481 1481 1480 1480 1478 1478 1477 1477 1477 1478 1478 1478 1477 1478 1478 1478 1479 1479 1480 1480 1480 1480 1480 1479 1479 1480 1480 1480 1480 1480 1479 1479 1479 1479 1478 1478 1478 1477 1477